Regional Weather Roundup
Issued by NWS

Home | Current Version | Previous Version | Graphics & Text | Print | Product List | Glossary On
Versions: 1 2 3 4 5 6 7 8 9 10 11 12 13 14 15 16 17 18 19 20 21 22 23 24 25 26 27 28 29 30 31 32 33 34 35 36 37 38 39 40 41 42 43 44 45 46 47 48 49 50
000
ASUS45 KPSR 220210
RWRAZ

ARIZONA HOURLY REGIONAL WEATHER ROUNDUP
NATIONAL WEATHER SERVICE PHOENIX AZ
700 PM MST THU SEP 21 2017

NOTE: FAIR INDICATES FEW OR NO CLOUDS BELOW 12,000 FEET WITH NO
SIGNIFICANT WEATHER AND/OR OBSTRUCTIONS TO VISIBILITY.

AZZ001>003-036-220300-
NORTHWEST ARIZONA

CITY           SKY/WX    TMP DP  RH WIND       PRES   REMARKS
BULLHEAD CITY  PTCLDY    86  45  23 W16G28    29.56R
KINGMAN        CLEAR     73  38  27 S18       29.72F
$$

AZZ004>008-015-016-018-220300-
NORTH CENTRAL ARIZONA

CITY           SKY/WX    TMP DP  RH WIND       PRES   REMARKS
GRAND CANYON   PTCLDY    61  35  37 SW20G26   29.90R
WILLIAMS       CLEAR     61  34  36 SW16G29   29.92S
PRESCOTT       CLEAR     69  37  30 S14G26    29.87R
FLAGSTAFF      CLEAR     59  34  39 S20G35    29.95S
PAYSON           N/A     70  36  28 SW10G20   29.91S
PAGE           PTCLDY    78  31  17 SW14G25   29.68R
$$

AZZ009>014-017-220300-
NORTHEAST ARIZONA

CITY           SKY/WX    TMP DP  RH WIND       PRES   REMARKS
WINSLOW        CLEAR     73  32  22 S16       29.84S
SAINT JOHNS    CLEAR     72  41  32 SW8       29.92S
WINDOW ROCK    CLEAR     68  32  26 S14G22    29.97R
SHOW LOW       CLEAR     68  36  30 S15G22    29.98R
$$

AZZ540-542>544-546-548-220300-
GREATER PHOENIX AREA

CITY           SKY/WX    TMP DP  RH WIND       PRES   REMARKS
PHOENIX        PTCLDY    91  33  12 W16       29.63R
BUCKEYE        CLEAR     84  41  21 S13       29.65R
GLENDALE       PTCLDY    91  36  14 S15       29.65S
LUKE AFB       CLEAR     89  37  16 S13       29.63R
DEER VALLEY    CLEAR     88  36  15 SW12      29.65S
SCOTTSDALE     CLEAR     89  34  14 W9        29.67R
MESA-FALCON    PTCLDY    90  32  12 S14       29.66S
MESA-GATEWAY   PTCLDY    90  30  12 SW12      29.67S
CHANDLER       CLEAR     90  28  11 SW17      29.66R
$$

AZZ539-553-220300-
SOUTHWEST MARICOPA COUNTY AND PINAL COUNTY

CITY           SKY/WX    TMP DP  RH WIND       PRES   REMARKS
CASA GRANDE    NOT AVBL
GILA BEND      PTCLDY    87  30  13 S14       29.64R
$$

AZZ503-504-507>509-220300-
SOUTHEAST ARIZONA

CITY           SKY/WX    TMP DP  RH WIND       PRES   REMARKS
TUCSON         CLEAR     87  46  24 SW7       29.78S
DAVIS-MONTHAN  CLEAR     87  41  19 W8        29.77S
RYAN FIELD     CLEAR     88  45  22 SW12      29.77S
NOGALES        CLEAR     80  37  21 S14       29.89R
SIERRA VISTA   CLEAR     79  39  23 SW10      29.95S
DOUGLAS        CLEAR     80  38  22 SW9       29.90R
SAFFORD        PTCLDY    86  39  19 W10       29.77R
$$

AZZ532-220300-
SOUTHWEST ARIZONA

CITY           SKY/WX    TMP DP  RH WIND       PRES   REMARKS
YUMA           PTCLDY    82  51  34 W18G28    29.65R
$$

CAZ041-043-047-048-061-525>527-560>570-220300-
SOUTHERN CALIFORNIA

CITY           SKY/WX    TMP DP  RH WIND       PRES   REMARKS
DOWNTOWN L.A.  CLEAR     67  55  65 CALM      29.81S
L.A. AIRPORT   PTCLDY    66  57  72 SW8       29.81S
SAN DIEGO      PTCLDY    67  51  56 W10       29.87S
BURBANK        CLEAR     65  50  58 S7        29.81S
ONTARIO        PTCLDY    66  45  46 SW13      29.82S
RIVERSIDE      PTCLDY    65  46  50 W9        29.81S
PALM SPRINGS   PTCLDY    79  44  28 NE8       29.69R
EL CENTRO NAS  CLEAR     76  50  40 W30G40    29.72R
IMPERIAL       CLEAR     76  53  44 W22G35    29.68R
BLYTHE         CLEAR     82  50  32 SW18      29.65R
NEEDLES        CLEAR     86  46  24 W15       29.60R
$$

NVZ020-UTZ003-220300-
SOUTHERN NEVADA-UTAH

CITY           SKY/WX    TMP DP  RH WIND       PRES   REMARKS
LAS VEGAS      PTCLDY    74  39  28 SW16G31   29.64S
SALT LAKE CITY RAIN      46  42  86 NW18      29.82R
$$

NMZ009-TXZ055-220300-
NEW MEXICO-WEST TEXAS

CITY           SKY/WX    TMP DP  RH WIND       PRES   REMARKS
ALBUQUERQUE    PTCLDY    81  32  17 SW10      29.90R
EL PASO        PTCLDY    86  44  23 SE7       29.87S
$$


........................KEY........................
SKY/WX - SKY CONDITION/WEATHER
TMP    - TEMPERATURE IN FAHRENHEIT
DP     - DEW POINT IN FAHRENHEIT
RH     - RELATIVE HUMIDITY IN PERCENT
WIND   - DIRECTION AND SPEED IN MILES PER HOUR (MPH)
VRB    - VARIABLE WIND DIRECTION
PRES   - MEAN SEA LEVEL PRESSURE IN INCHES OF MERCURY
         F - FALLING PRESSURE   R - RISING PRESSURE
         S - STEADY PRESSURE
VSB    - VISIBILITY IN MILES
HX     - HEAT INDEX IN FAHRENHEIT
WCI    - WIND CHILL INDEX IN FAHRENHEIT
TC     - TEMPERATURE IN CELSIUS WHICH IS ALSO KNOWN AS
         TEMPERATURE IN CENTIGRADE
AFB    - AIR FORCE BASE
         LUKE AFB IS LUKE AIR FORCE BASE
         DAVIS-MONTHAN IS DAVIS-MONTHAN AIR FORCE BASE
NAS    - NAVAL AIR STATION
         EL CENTRO NAS IS EL CENTRO NAVAL AIR STATION
N/A    - NOT AVAILABLE




USA.gov is the U.S. government's official web portal to all federal, state and local government web resources and services.